Miscellaneous Local Product
Issued by NWS North Platte, NE

Home | Current Version | Previous Version | Text Only | Print | Product List | Glossary On
Versions: 1 2 3 4 5 6 7 8 9 10 11 12 13 14 15 16 17 18 19 20 21 22 23 24 25 26 27 28 29 30 31 32 33 34 35 36 37 38 39 40 41 42 43 44 45 46 47 48 49 50
246
AXUS43 KLBF 230010
MISLBF


WESTERN AND NORTH CENTRAL NEBRASKA HOURLY WEATHER ROUNDUP
NATIONAL WEATHER SERVICE NORTH PLATTE NE
700 PM CDT SAT APR 22 2017

NOTE: "FAIR" INDICATES FEW OR NO CLOUDS BELOW 12,000 FEET WITH NO
SIGNIFICANT WEATHER AND/OR OBSTRUCTIONS TO VISIBILITY.

NOTE: STATIONS NOT REPORTING VARIABLES SUCH AS SKY/WEATHER OR
PRESSURE ARE PROVIDED BY RAWS AND APRS NETWORKS AND ARE NOT UNDER
NATIONAL WEATHER SERVICE QUALITY CONTROL.

...OBSERVATIONS IN AND NEAR THE EASTERN PANHANDLE OF NEBRASKA...

CITY           SKY/WX    TMP DP  RH WIND       PRES   REMARKS
PINE RIDGE     SUNNY     64  30  27 S12       30.14F
CHADRON        MOSUNNY   64  31  28 S12G20    30.13F
ALLIANCE       SUNNY     60  27  28 SW13      30.17F
SIDNEY         SUNNY     56  32  40 S9        30.23S
$$

...OBSERVATIONS IN NORTHERN NEBRASKA AND FAR SOUTHERN SOUTH DAKOTA...

CITY           SKY/WX    TMP DP  RH WIND       PRES   REMARKS
WINNER         FAIR      67  33  28 S9        30.16F
VALENTINE      SUNNY     67  21  17 S6        30.16F
THEDFORD       SUNNY     64  24  21 S7        30.20S
AINSWORTH      SUNNY     63  31  30 S7        30.18F
O`NEILL        SUNNY     64  30  27 CALM      30.20F
ORD            SUNNY     63  27  25 CALM      30.19F
BROKEN BOW     SUNNY     63  30  28 E3        30.20F
VALENTINE NWR    N/A     65  24  21 SW7         N/A
HALSEY           N/A     66  23  19 SW3G12      N/A
BUTTE            N/A     65  35  33 CALM        N/A
CHAMBERS         N/A     67  38  34 CALM        N/A
EWING            N/A     64  33  32 CALM        N/A
$$

...OBSERVATIONS IN SOUTHWEST NEBRASKA AND FAR NORTHEAST COLORADO...

CITY           SKY/WX    TMP DP  RH WIND       PRES   REMARKS
HOLYOKE        FAIR      61  32  33 S6        30.23F
IMPERIAL       SUNNY     59  29  31 SW3       30.22F
OGALLALA       SUNNY     64  24  22 CALM      30.20F
NORTH PLATTE   SUNNY     63  27  25 CALM      30.21S
MCCOOK         SUNNY     63  29  27 CALM      30.21F
LEXINGTON      SUNNY     62  28  28 CALM      30.21F
STAPLETON        N/A     65  30  27 CALM        N/A
GOTHENBURG       N/A     64  27  24 NE5         N/A
CALLAWAY         N/A     63  29  27 SE5         N/A
$$

...OBSERVATIONS IN CENTRAL LINCOLN COUNTY AREA...

CITY           SKY/WX    TMP DP  RH WIND       PRES   REMARKS
N.P. AIRPORT   SUNNY     63  27  25 CALM      30.21S
N.P. DOWNTOWN    N/A     64  28  25 CALM        N/A
N.P. HILLCREST   N/A     63  29  28 S3          N/A
$$

...SOME OBSERVATIONS FROM AROUND THE REGION...

CITY           SKY/WX    TMP DP  RH WIND       PRES   REMARKS
DENVER         MOSUNNY   55  24  30 SE3       30.21F
LIMON          SUNNY     52  29  41 S7        30.24F
ASPEN          SUNNY     54  16  22 N8        30.16F
LARAMIE        SUNNY     47  30  51 SE16G24   30.19F
CASPER         SUNNY     57  29  34 W10       30.10F
CHEYENNE       SUNNY     50  26  39 S12       30.21F
SCOTTSBLUFF    SUNNY     62  27  26 SW12G18   30.17F
GRAND ISLAND   SUNNY     64  30  27 N8        30.21F
OMAHA          MOSUNNY   67  31  26 NE8       30.18S
SIOUX FALLS    MOSUNNY   66  37  34 SW5       30.16F
PIERRE         SUNNY     67  34  29 SW14      30.09F
RAPID CITY     MOSUNNY   64  32  30 S18       30.08F
BISMARCK       CLOUDY    63  44  50 NE17      30.06S
KANSAS CITY    PTSUNNY   60  32  34 N15G23    30.12S
HILL CITY      SUNNY     62  28  27 N5        30.23S
WICHITA        CLOUDY    61  36  39 N14       30.14S
DODGE CITY     MOSUNNY   58  32  37 NE9       30.23F
OKLAHOMA CITY  PTSUNNY   54  41  61 N16       30.16R
DALLAS         MOSUNNY   61  44  53 N21       30.09S
AMARILLO       MOSUNNY   56  32  40 N16G25    30.24R
$$




USA.gov is the U.S. government's official web portal to all federal, state and local government web resources and services.